.

Date Time Name Race Sex Age Charge Charge Description Case ID
4/24/2020 0147 CAPALUCCI, MICHAEL PIERCE W M 30 18.2-57.2|[M] ASSAULT & BATTERY - FAMILY MEMBER 2020005245
4/24/2020 0307 GREEN, LARON X B M 22 18.2-26 ATTEMPT TO COMMIT NONCAPITAL OFFENSE 2020004490
4/24/2020 0307 GREEN, LARON X B M 22 18.2-53.1 USE OR DISPLAY FIREARM IN COMMISSION OF FELONY 2020004490
4/24/2020 0307 GREEN, LARON X B M 22 18.2-282|[M] BRANDISHING FIREARM 2020004490
4/24/2020 0307 GREEN, LARON X B M 22 18.2-57|[M] ASSAULT & BATTERY 2020004490
4/24/2020 0307 GREEN, LARON X B M 22 18.2-57.2|[M] ASSAULT & BATTERY - FAMILY MEMBER 2020004490
4/24/2020 0307 GREEN, LARON X B M 22 18.2-95 GRAND LARCENY 2020004490
4/24/2020 0856 EVANS, JACOB AUSTIN W M 23 18.2-250|[F] POSSESSION OF CONTROLLED SUBSTANCES 2020005250
4/24/2020 0856 EVANS, JACOB AUSTIN W M 23 18.2-250.1 POSSESSION OF MARIJUANA 2020005250
4/24/2020 1624 DAWSON, KAVANTE OCTIVIOUS B M 21 18.2-137|[M] DESTRUCTION OF PROPERTY, GENERAL
4/24/2020 1625 COLVIN, CORIN MAYA B F 22 4-31 DOG AT LARGE
4/25/2020 0008 MITCHELL, DWIGHT ANTONIO B M 33 18.2-95 GRAND LARCENY
4/25/2020 0008 MITCHELL, DWIGHT ANTONIO B M 33 18.2-192 CREDIT CARD THEFT
4/25/2020 0008 MITCHELL, DWIGHT ANTONIO B M 33 18.2-178|[M] OBTAINING MONEY BY FALSE PRETENSES
4/25/2020 0008 MITCHELL, DWIGHT ANTONIO B M 33 18.2-195|[M] CREDIT CARD FRAUD <$200
4/25/2020 0008 MITCHELL, DWIGHT ANTONIO B M 33 18.2-57|[M] ASSAULT & BATTERY
4/25/2020 0008 MITCHELL, DWIGHT ANTONIO B M 33 18.2-102|[F] UNAUTHORIZED USE OF VEHICLE, BOAT OR ANIMAL
4/25/2020 0008 MITCHELL, DWIGHT ANTONIO B M 33 18.2-96|[F] LARCENY OR THEFT (3RD OR SUBSQ OFFENSE)
4/25/2020 0047 ARTIS, QUINTON ERIC B M 34 18.2-266 DRIVING UNDER THE INFLUENCE OF ALCOHOL 2020005282
4/25/2020 0215 SMITH, DESMOND DESHAWN B M 34 18.2-248.1|[F] SALE, DISTRIBUTE MARIJUANA 2020005286
4/25/2020 0215 SMITH, DESMOND DESHAWN B M 34 18.2-308.4 POSSESS FIREARM WHILE IN POSSESSION OF DRUGS 2020005286
4/25/2020 0305 DEBERRY, GERVANCIO DONTA B M 27 18.2-308.2 POSSESS, TRANSPORT FIREARMS BY CONVICTED FELONS 2020005286
4/25/2020 0305 DEBERRY, GERVANCIO DONTA B M 27 18.2-250.1 POSSESSION OF MARIJUANA 2020005286
4/25/2020 0338 MCCARTY, JOHN ANTHONY W M 35 18.2-456 CONTEMPT OF COURT
4/25/2020 0343 WHITE, MAURICE ANDRE B M 52 18.2-57.2|[F] ASSAULT & BATTERY - FAMILY MEMBER (3RD OFFENSE) 2020005289
4/25/2020 1725 ROBERTS, KEYIA VONTE B F 35 18.2-250|[F] POSSESSION OF CONTROLLED SUBSTANCES 2020005301
4/25/2020 2027 ALSTON, MAURICE B M 35 18.2-266|[F] DUI - THIRD OR SUBSEQUENT OFFENSE
4/25/2020 2027 ALSTON, MAURICE B M 35 18.2-268.3 REFUSE BLOOD/BREATH TEST
4/25/2020 2027 ALSTON, MAURICE B M 35 46.2-852 RECKLESS - GENERAL
4/25/2020 2027 ALSTON, MAURICE B M 35 18.2-272 DRIVING AFTER FORFEITURE OF LICENSE FELONY
4/25/2020 2106 JOHNSON, VICTOR L B M 29 18.2-456 CONTEMPT OF COURT
4/26/2020 1507 LOVELL, MUMINA JAMILYA B F 37 18.2-57|[M] ASSAULT & BATTERY 2020005341
4/26/2020 1836 JENKINS, KEIANA ASHANTI B F 29 18.2-172 FORGING, UTTERING
4/26/2020 1836 JENKINS, KEIANA ASHANTI B F 29 18.2-178|[M] OBTAINING MONEY BY FALSE PRETENSES
4/26/2020 4:00:00 PM 1600 HARRISON, TRAMONE LAVAR B M 21 18.2-308|[M] CARRYING CONCEALED WEAPON -1ST OFFENSE 2020005342
4/27/2020 0016 LOPEZ, MERCEDES VINAYA B F 21 19.2-152.4:1[M] REVOCATION OF PRETRIAL RELEASE
4/27/2020 0236 SAWYER, DURELL JEROME B M 45 18.2-104 LARCENY OR THEFT (3RD OR SUBSQ OFFENSE) 2020004522
4/27/2020 0321 CAPUTO, MATTHEW RYAN W M 33 18.2-266 DRIVING UNDER THE INFLUENCE OF ALCOHOL 2020005356
4/27/2020 1254 CAHOON, GLENN ALLEN JR W M 48 18.2-57.2|[M] ASSAULT & BATTERY - FAMILY MEMBER
4/27/2020 1315 DUNBAR, JAMES WESLEY JR B M 57 19.2-306|[F] REVOCATION OF SUSPENDED SENTENCE AND PROBATION 2020005364
4/27/2020 1315 DUNBAR, JAMES WESLEY JR B M 57 18.2-250|[F] POSSESSION OF CONTROLLED SUBSTANCES 2020005364
4/27/2020 1353 HAIRSTON, TIENE EUGENIA B F 48 18.2-460(E) 18.2-460. OBSTRUCTING JUSTICE; RESISTING ARREST; FLEEING FRS 2020005339
4/27/2020 1353 HAIRSTON, TIENE EUGENIA B F 48 1-200 COMMON LAW
4/27/2020 1353 HAIRSTON, TIENE EUGENIA B F 48 18.2-250|[F] POSSESSION OF CONTROLLED SUBSTANCES 2020005339
4/27/2020 1730 CARTER, MICHAEL TONY W M 34 18.2-51.6[F] STRANGULATION OF ANOTHER 2019013583
4/27/2020 1900 GLENN, WILLIE JR B M 60 19.2-306|[F] REVOCATION OF SUSPENDED SENTENCE AND PROBATION
4/28/2020 0100 SCOTT, DAVID OBRIEN JR B M 29 18.2-146 TAMPERING WITH VEHICLE 2020005041
4/28/2020 0100 SCOTT, DAVID OBRIEN JR B M 29 18.2-96|[M] PETIT LARCENY 2020005041
4/28/2020 0100 SCOTT, DAVID OBRIEN JR B M 29 18.2-137|[M] DESTRUCTION OF PROPERTY, GENERAL 2020005041
4/28/2020 0100 SCOTT, DAVID OBRIEN JR B M 29 18.2-192 CREDIT CARD THEFT 2020005041
4/28/2020 0150 STRATMAN, JASON TODD W M 44 24-258 PUBLIC DRUNKENNESS 2020005395
4/28/2020 0305 HUMM, TIMOTHY JAMES JR W M 29 18.2-137|[M] DESTRUCTION OF PROPERTY, GENERAL
4/28/2020 0305 HUMM, TIMOTHY JAMES JR W M 29 18.2-51.6[F] STRANGULATION OF ANOTHER 2020005394
4/28/2020 1732 LUCAS, ROBERT JAMES W M 49 18.2-57|[M] ASSAULT & BATTERY 2020004912
4/28/2020 2017 BARHAM, JAMES LEE JR B M 38 18.2-456 CONTEMPT OF COURT
4/28/2020 2017 BARHAM, JAMES LEE JR B M 38 19.2-306|[F] REVOCATION OF SUSPENDED SENTENCE AND PROBATION
4/28/2020 2209 ROUSE, VANDOREA LAVENYA B F 53 19.2-306|[F] REVOCATION OF SUSPENDED SENTENCE AND PROBATION
4/28/2020 2347 WOODS, MARY MELIAH SANTRELL B F 19 18.2-57|[F] ASSAULT & BATTERY 2020005428
4/28/2020 2347 WOODS, MARY MELIAH SANTRELL B F 19 18.2-57.2|[M] ASSAULT & BATTERY - FAMILY MEMBER 2020005428
4/29/2020 0019 HOLLOWAY, NASIR OBIE LEWIS B M 19 18.2-57|[F] ASSAULT & BATTERY
4/29/2020 0019 HOLLOWAY, NASIR OBIE LEWIS B M 19 18.2-57.2|[M] ASSAULT & BATTERY - FAMILY MEMBER
4/29/2020 0413 REYNOLDS, ROBERT WAYNE JR W M 46 18.2-57|[M] ASSAULT & BATTERY
4/29/2020 0413 REYNOLDS, ROBERT WAYNE JR W M 46 18.2-67.5|[F] ATTEMPTED RAPE, SODOMY, PENETRATION, SEX BATTERY
4/29/2020 0413 REYNOLDS, ROBERT WAYNE JR W M 46 18.2-61 RAPE
4/29/2020 1102 SPENCER, RICARDO LEE III B M 19 18.2-248.1:1[M] POSSESSION OF SYNTHETIC CANNABINOIDS 2020005448
4/29/2020 1345 TERRY, TIARA B F 26 18.2-57.2|[M] ASSAULT & BATTERY - FAMILY MEMBER 2020005455
4/29/2020 1420 POWELL, ANTWAUN DEWAUN B M 39 19.2-306|[F] REVOCATION OF SUSPENDED SENTENCE AND PROBATION
4/29/2020 1549 BREMBY, DESHAWN DEVON B M 27 18.2-102|[F] UNAUTHORIZED USE OF VEHICLE, BOAT OR ANIMAL
4/29/2020 1600 DRAYTON, GERALD LAMONT B M 36 16.1-253.2[M] PROTECTIVE ORDER: VIOLATION
4/29/2020 1750 JONES, RAEKWON JAWAYNE B M 19 18.2-308.2 POSSESS, TRANSPORT FIREARMS BY CONVICTED FELONS 2020005448
4/29/2020 1750 JONES, RAEKWON JAWAYNE B M 19 18.2-46.2 PROHIBITED CRIMINAL STREET GANG PARTICIPATION 2020005448
4/29/2020 1750 JONES, RAEKWON JAWAYNE B M 19 18.2-248.1|[M] SALE, DISTRIBUTE MARIJUANA 2020005448
4/29/2020 1750 JONES, RAEKWON JAWAYNE B M 19 18.2-308|[M] CARRYING CONCEALED WEAPON -1ST OFFENSE 2020005448
4/29/2020 1750 JONES, RAEKWON JAWAYNE B M 19 46.2-300 NO DRIVERS LICENSE 2020005448
4/29/2020 2000 HENDERSON, WILLIAM MAJOR III B M 32 PB-15 PAROLE BOARD WARRANT - PB15 2020005467
4/29/2020 2000 HENDERSON, WILLIAM MAJOR III B M 32 18.2-91|[F] BREAKING & ENTER W/INT TO COMMIT FELONY 2020005467
4/29/2020 2000 HENDERSON, WILLIAM MAJOR III B M 32 18.2-108.01 STOLEN PROPERTY: W/ INTENT TO SELL, LARCENY>$200 2020005467
4/29/2020 2135 FAIR, ERMA FRANCIS B F 50 18.2-57.2|[M] ASSAULT & BATTERY - FAMILY MEMBER 2020005471
4/29/2020 8:00:00 PM 1316 DEVIN, RODNEY LAMAR B M 29 18.2-57.2|[M] ASSAULT & BATTERY - FAMILY MEMBER 2020005455
4/30/2020 0611 MCCULLOUGH, DAVID JERMAINE B M 44 18.2-266 DRIVING UNDER THE INFLUENCE OF ALCOHOL 2020005484
4/30/2020 0611 MCCULLOUGH, DAVID JERMAINE B M 44 18.2-250.1 POSSESSION OF MARIJUANA 2020005484
4/30/2020 1541 JONES, BURT ALLEN B M 38 19.2-306|[F] REVOCATION OF SUSPENDED SENTENCE AND PROBATION
5/1/2020 0034 ELLIOTT, DARYLL LORENZO B M 34 18.2-104 LARCENY OR THEFT (3RD OR SUBSQ OFFENSE) 2020004454
5/1/2020 0034 ELLIOTT, DARYLL LORENZO B M 34 18.2-96|[F] LARCENY OR THEFT (3RD OR SUBSQ OFFENSE) 2020002022
5/1/2020 0149 BROWN, OSCAR B M 68 18.2-57.2|[F] ASSAULT & BATTERY - FAMILY MEMBER (3RD OFFENSE) 2020005529
5/1/2020 0400 DAUGHTRY, ANDREW JAMES W M 25 18.2-96|[M] PETIT LARCENY 2020005528
5/1/2020 1722 BROOKS, JAMIE LYNN W F 37 18.2-91|[F] BREAKING & ENTER W/INT TO COMMIT FELONY 2020005553
5/1/2020 1722 BROOKS, JAMIE LYNN W F 37 18.2-96|[M] PETIT LARCENY
5/1/2020 2141 GOODMAN, OLIVIA LIZZIE WACKO B F 18 18.2-57.2|[M] ASSAULT & BATTERY - FAMILY MEMBER
5/2/2020 0017 KOON, SAMUEL BRUCE W M 24 18.2-250|[F] POSSESSION OF CONTROLLED SUBSTANCES 2020005574
5/2/2020 0339 GOODNIGHT, ANDREW JOSHUA W M 29 46.2-301 DRIVING W/SUSPENDED OR REVOKED LICENSE 2020005583
5/2/2020 0339 GOODNIGHT, ANDREW JOSHUA W M 29 18.2-137|[F] DESTRUCTION OF PROPERTY GENERAL -VALUE >=$1000 2020005583
5/2/2020 0339 GOODNIGHT, ANDREW JOSHUA W M 29 46.2-817|[F] ELUDING POLICE - ENDANGER PERSONS OR POLICE CAR 2020005583
5/2/2020 0339 GOODNIGHT, ANDREW JOSHUA W M 29 19.2-306|[F] REVOCATION OF SUSPENDED SENTENCE AND PROBATION
5/2/2020 0545 HERRERA, ELENA KATARINA W F 25 18.2-266 DRIVING UNDER THE INFLUENCE OF ALCOHOL 2020005586
5/2/2020 1345 CLEMONS, TONEY ANNODE JR B M 60 18.2-456 CONTEMPT OF COURT
5/2/2020 1450 ROBERTS, WILLIAM BILLY B M 43 COURTESY COURTESY HOLD
5/2/2020 2110 MOORE, TRAVIS JAMEL B M 41 18.2-95 GRAND LARCENY 2020002132
5/2/2020 2110 MOORE, TRAVIS JAMEL B M 41 18.2-108.01 STOLEN PROPERTY: W/ INTENT TO SELL, LARCENY>$200 2020002132
5/2/2020 2110 MOORE, TRAVIS JAMEL B M 41 18.2-96|[M] PETIT LARCENY 2020002132
5/2/2020 2110 MOORE, TRAVIS JAMEL B M 41 18.2-178|[M] OBTAINING MONEY BY FALSE PRETENSES 2020002132
5/2/2020 2110 MOORE, TRAVIS JAMEL B M 41 18.2-152.3 COMPUTER FRAUD 2020002132
5/2/2020 2110 MOORE, TRAVIS JAMEL B M 41 46.2-301 DRIVING W/SUSPENDED OR REVOKED LICENSE 2020005608
5/2/2020 2110 MOORE, TRAVIS JAMEL B M 41 18.2-456(6) FAIL TO APPEAR-FEL/MISD/SUMONS
5/2/2020 2258 DEVANE, DERRICK CHARLES B M 42 24-258 PUBLIC DRUNKENNESS 2020005618
5/3/2020 0644 BOONE, JOSHUA DYLAN W M 25 18.2-80|[M] BURNING OR DESTROYING UNOCCUPIED BUILDING <$200
5/3/2020 0644 BOONE, JOSHUA DYLAN W M 25 18.2-138|[M] DAMAGING PUBLIC BUILDINGS, LIBRARY MATER <$1000
5/3/2020 0857 GRANGER, SHANICE MARIAH B F 27 46.2-722 ALTER OR FORGE LICENSE PLATE OR DECAL 2020005629
5/3/2020 0857 GRANGER, SHANICE MARIAH B F 27 46.2-301 DRIVING W/SUSPENDED OR REVOKED LICENSE 2020005629
5/3/2020 0857 GRANGER, SHANICE MARIAH B F 27 18.2-266|[M] DRIVING UNDER THE INFLUENCE OF ALCOHOL 2020005629
5/3/2020 0857 GRANGER, SHANICE MARIAH B F 27 18.2-371 CONTRIBUTING TO THE DELINQUENCY OF A MINOR 2020005629
5/3/2020 1050 BOONE, JOSHUA DYLAN W M 25 18.2-119 TRESPASSING 2020005632
5/3/2020 1050 BOONE, JOSHUA DYLAN W M 25 18.2-415 DISORDERLY CONDUCT 2020005632
5/3/2020 1218 CALDWELL, SHAUN LEE B M 29 18.2-250|[F] POSSESSION OF CONTROLLED SUBSTANCES 2020005639
5/3/2020 1218 CALDWELL, SHAUN LEE B M 29 54.1-3466 POSSESS, DISTRIBUTE CONTROLLED PARAPHERNALIA 2020005639
5/3/2020 1709 SWINNEY, SHONTA LATRICE B F 40 46.2-852 RECKLESS - GENERAL 2020005641
5/3/2020 1709 SWINNEY, SHONTA LATRICE B F 40 46.2-300 NO DRIVERS LICENSE 2020005641
5/3/2020 1709 SWINNEY, SHONTA LATRICE B F 40 18.2-266|[M] DRIVING UNDER THE INFLUENCE OF ALCOHOL 2020005641
5/3/2020 2023 BESLOW, THOMAS ALBERT JR B M 54 24-258 PUBLIC DRUNKENNESS 2020005654
5/4/2020 0250 BUNCH, TANGELA VARCHELLE B F 49 19.2-306|[M] REVOCATION OF SUSPENDED SENTENCE AND PROBATION
5/4/2020 0250 BUNCH, TANGELA VARCHELLE B F 49 18.2-96|[M] PETIT LARCENY
5/4/2020 0350 BOST, JUDSON CURTIS W M 35 18.2-57.2|[M] ASSAULT & BATTERY - FAMILY MEMBER 2020005660
5/4/2020 0548 LAYTON, JENINE NICOLE W F 45 19.2-306|[F] REVOCATION OF SUSPENDED SENTENCE AND PROBATION
5/4/2020 0852 VREEN, TIMOTHY LEVIEN JR B M 28 18.2-92|[F] BREAKING & ENTER W/INT TO COMMIT MISDEMEANOR 2020005665
5/4/2020 0852 VREEN, TIMOTHY LEVIEN JR B M 28 18.2-137|[M] DESTRUCTION OF PROPERTY, GENERAL 2020005666
5/4/2020 0852 VREEN, TIMOTHY LEVIEN JR B M 28 18.2-250|[F] POSSESSION OF CONTROLLED SUBSTANCES 2020005666
5/4/2020 1305 WALKER, LATOYA MICHELLE B F 35 18.2-456 CONTEMPT OF COURT
5/4/2020 1409 HOOVER, DAVID SCOTT W M 49 18.2-111|[M] EMBEZZLEMENT < $500
5/4/2020 1409 HOOVER, DAVID SCOTT W M 49 18.2-152.4 COMPUTER TRESPASS 2020004305
5/4/2020 1409 HOOVER, DAVID SCOTT W M 49 18.2-152.5 COMPUTER INVASION OF PRIVACY
5/4/2020 1808 CHEELY, JOHN THOMAS W M 44 18.2-456 CONTEMPT OF COURT
5/5/2020 0020 SCOTT, JOSEPH FRANKLIN W M 61 18.2-96|[M] PETIT LARCENY 2020005700
5/5/2020 0020 SCOTT, JOSEPH FRANKLIN W M 61 18.2-57|[M] ASSAULT & BATTERY 2020005700
5/5/2020 0140 BUNCH, TANGELA VARCHELLE B F 49 18.2-250|[F] POSSESSION OF CONTROLLED SUBSTANCES 2020005702
5/5/2020 0224 STRATMAN, JASON TODD W M 44 24-258 PUBLIC DRUNKENNESS 2020005703
5/5/2020 0519 WOODYARD, MICHAEL COREY W M 43 24-258 PUBLIC DRUNKENNESS 2020005705
5/5/2020 0708 BASSFIELD, ROBIN NICOLE B F 34 19.2-152.4:1[M] REVOCATION OF PRETRIAL RELEASE
5/5/2020 0708 BASSFIELD, ROBIN NICOLE B F 34 18.2-456 CONTEMPT OF COURT
5/5/2020 0824 SIFFORD, JAMES MAURICE B M 49 18.2-250|[F] POSSESSION OF CONTROLLED SUBSTANCES 2020005707
5/5/2020 0951 PIPPEN, JOE RICHARD JR B M 64 19.2-306|[F] REVOCATION OF SUSPENDED SENTENCE AND PROBATION
5/5/2020 1036 DRISDOM, ANTHONY LEON JR B M 22 46.2-817|[F] ELUDING POLICE - ENDANGER PERSONS OR POLICE CAR 2020004150
5/5/2020 1036 DRISDOM, ANTHONY LEON JR B M 22 18.2-108|[F] RECEIVING STOLEN GOODS 2020004150
5/5/2020 1113 HARDWICK, ANTONIO CACHENO B M 39 18.2-91|[F] BREAKING & ENTER W/INT TO COMMIT FELONY 2020005658
5/5/2020 1155 MITCHELL, MICHAEL ANTWOIN SR B M 45 19.2-306|[F] REVOCATION OF SUSPENDED SENTENCE AND PROBATION
5/5/2020 1425 RANDALL, ALVIN VONTE WILLIAM B M 27 18.2-387.1 OBSCENE SEXUAL DISPLAY; PENALTY.
5/5/2020 1425 JOHNSON, SAMUEL DESHAWNE JR B M 20 18.2-387.1 OBSCENE SEXUAL DISPLAY; PENALTY.
5/5/2020 2042 SANDERS, ERIKA LAKESHIA B F 34 19.2-306|[F] REVOCATION OF SUSPENDED SENTENCE AND PROBATION
5/5/2020 2046 BURCH, ROBERT ELTON W M 46 18.2-456 CONTEMPT OF COURT
5/5/2020 2046 BURCH, ROBERT ELTON W M 46 19.2-306|[F] REVOCATION OF SUSPENDED SENTENCE AND PROBATION
5/6/2020 1055 JONES, JAMEL RAIQUON B M 23 19.2-306|[F] REVOCATION OF SUSPENDED SENTENCE AND PROBATION
5/6/2020 1435 HALL, CARLTON B M 54 19.2-306|[F] REVOCATION OF SUSPENDED SENTENCE AND PROBATION
5/6/2020 1557 HALL, CARLTON B M 54 16.1-278.16 FAIL TO COMPLY WITH SUPPORT OBLIGATIONS
5/6/2020 1620 WATKINS, DEONDRE TRA`QUAN B M 23 19.2-306|[F] REVOCATION OF SUSPENDED SENTENCE AND PROBATION
5/7/2020 1000 SIMMONS, CLARENCE CLEMON B M 60 19.2-152.4:1[F] REVOCATION OF PRETRIAL RELEASE
5/7/2020 1023 PASS, JEROME EDWARD B M 37 18.2-456 CONTEMPT OF COURT
5/7/2020 1144 EARLY, TRAVIEL DONOVAN B M 23 18.2-282|[M] BRANDISHING FIREARM
5/8/2020 0527 WEATHERSPOON, ANTONIO WAYNE B M 32 18.2-456 CONTEMPT OF COURT
5/8/2020 0527 WEATHERSPOON, ANTONIO WAYNE B M 32 18.2-57.2|[M] ASSAULT & BATTERY - FAMILY MEMBER 2020005824
5/8/2020 1506 HENSON, ALONTE DAMAR B M 23 19.2-306|[F] REVOCATION OF SUSPENDED SENTENCE AND PROBATION
5/8/2020 1506 HENSON, ALONTE DAMAR B M 23 18.2-456 CONTEMPT OF COURT
5/8/2020 1506 HENSON, ALONTE DAMAR B M 23 18.2-104 LARCENY OR THEFT (3RD OR SUBSQ OFFENSE) 2020004442
5/8/2020 1506 HENSON, ALONTE DAMAR B M 23 18.2-147 ENTERING OR SETTING IN MOTION A VEHICLE 2020004442
5/8/2020 1506 HENSON, ALONTE DAMAR B M 23 18.2-186.3 IDENTITY THEFT: USE TO AVOID ARREST 2020004442
5/8/2020 1506 HENSON, ALONTE DAMAR B M 23 18.2-192 CREDIT CARD THEFT 2020004442
5/8/2020 1506 HENSON, ALONTE DAMAR B M 23 18.2-193 CREDIT CARD FORGERY 2020004442
5/8/2020 1506 HENSON, ALONTE DAMAR B M 23 18.2-195|[M] CREDIT CARD FRAUD <$200 2020004442
5/8/2020 1506 HENSON, ALONTE DAMAR B M 23 18.2-152.3 COMPUTER FRAUD 2020004442
5/8/2020 1819 PLUMMER, NIHEEM QURAN B M 18 18.2-56.1 RECKLESS HANDLING OF FIREARM 2020005845
5/8/2020 1819 PLUMMER, NIHEEM QURAN B M 18 18.2-280|[F] DISCHARGE FIREARM -BODILY HARM OR ON SCHOOL PROP 2020005845
5/9/2020 1041 GILBERT, MESHACH MALIK B M 27 18.2-137|[M] DESTRUCTION OF PROPERTY, GENERAL
5/9/2020 1041 GILBERT, MESHACH MALIK B M 27 18.2-57|[M] ASSAULT & BATTERY
5/9/2020 2302 HAYES, ANTHONY RAHEEM B M 27 18.2-51.6[F] STRANGULATION OF ANOTHER 2020004408
5/9/2020 2302 HAYES, ANTHONY RAHEEM B M 27 18.2-57.2|[M] ASSAULT & BATTERY - FAMILY MEMBER 2020004408
5/10/2020 0131 HILLIARD, JAMAR LAFONZ B M 32 16.1-279.1 PROTECTIVE ORDER IN CASES OF FAMILY ABUS
5/10/2020 0131 HILLIARD, JAMAR LAFONZ B M 32 18.2-119 TRESPASSING 2020005898
5/10/2020 0131 HILLIARD, JAMAR LAFONZ B M 32 33.2-802 DUMPING TRASH 2020005898
5/10/2020 0157 WRIGHT, IESHA SHARAE B F 29 18.2-102|[F] UNAUTHORIZED USE OF VEHICLE, BOAT OR ANIMAL
5/10/2020 0319 RIVAS, ALEXANDER B M 28 18.2-266|[M] DRIVING UNDER THE INFLUENCE OF ALCOHOL 2020005900
5/10/2020 0854 GREEN, MICHAEL RASHIF-KENIA B M 36 18.2-266 DRIVING UNDER THE INFLUENCE OF ALCOHOL 2020005905
5/10/2020 0854 GREEN, MICHAEL RASHIF-KENIA B M 36 18.2-268.3 REFUSE BLOOD/BREATH TEST 2020005905
5/10/2020 0854 GREEN, MICHAEL RASHIF-KENIA B M 36 46.2-301 DRIVING W/SUSPENDED OR REVOKED LICENSE 2020005905
5/10/2020 0854 GREEN, MICHAEL RASHIF-KENIA B M 36 46.2-896 HIT & RUN - UNATTENDED VEH 2020005905
5/10/2020 0854 GREEN, MICHAEL RASHIF-KENIA B M 36 18.2-248.1|[F] SALE, DISTRIBUTE MARIJUANA 2020005905
5/10/2020 1748 DREW, LAZHON NATHANIEL B M 21 18.2-57.2|[M] ASSAULT & BATTERY - FAMILY MEMBER 2020005918
5/10/2020 2315 LETEXIER, KATHERINE AVIS W F 23 18.2-456 CONTEMPT OF COURT
5/10/2020 2315 LETEXIER, KATHERINE AVIS W F 23 46.2-938 FAILURE TO APPEAR FOR TRAFFIC SUMMONS
5/10/2020 2315 LETEXIER, KATHERINE AVIS W F 23 19.2-128|[M] FAIL TO APPEAR ON MISDEMEANOR CHARGE
5/11/2020 0203 HERRING, ASHLEIGH NICOLE W F 29 18.2-119 TRESPASSING 2020005936
5/11/2020 0328 SKINNER, LAJONDA CATREASE B F 35 18.2-57.2|[M] ASSAULT & BATTERY - FAMILY MEMBER 2020005937
5/11/2020 1137 BASKERVILLE, ABDUL ADL B M 45 19.2-306|[F] REVOCATION OF SUSPENDED SENTENCE AND PROBATION
5/11/2020 1506 WALLACE, DOUGLAS BRENT W M 42 18.2-111|[F] EMBEZZLEMENT DEEMED LARCENY => $500 2020003435
5/11/2020 1506 WALLACE, DOUGLAS BRENT W M 42 18.2-178|[M] OBTAINING MONEY BY FALSE PRETENSES 2020005257
5/11/2020 1635 LEARY, LAMONTE JERROD B M 32 18.2-456 CONTEMPT OF COURT
5/11/2020 1820 JOYNER, JOSEPH ANTWAN B M 24 18.2-57.2|[M] ASSAULT & BATTERY - FAMILY MEMBER 2020005961
5/12/2020 0100 BARNES, EBONE ARLEEN B F 28 18.2-57.2|[M] ASSAULT & BATTERY - FAMILY MEMBER 2020005973
5/12/2020 0337 DAVENPORT-MONTGOMERY, NIKIIA MONIQUE B F 33 18.2-57.2|[M] ASSAULT & BATTERY - FAMILY MEMBER 2020005976
5/12/2020 0438 ROSALES, WALTER EMILIO JR B M 27 18.2-57|[M] ASSAULT & BATTERY 2020005977
5/12/2020 0438 ROSALES, WALTER EMILIO JR B M 27 18.2-415 DISORDERLY CONDUCT
5/12/2020 0713 BROWN, LOTTIE GRANBY B F 62 18.2-57.2|[M] ASSAULT & BATTERY - FAMILY MEMBER 2020005979
5/12/2020 1344 COLTRANE, D`ANDRAE DAQUAN B M 22 18.2-371.1 ABUSE AND NEGLECT OF CHILDREN 2020003458
5/12/2020 1415 HERNDON, KEITH TREVOR B M 51 18.2-51.6[F] STRANGULATION OF ANOTHER 2020005979
5/12/2020 1415 HERNDON, KEITH TREVOR B M 51 18.2-57.2|[M] ASSAULT & BATTERY - FAMILY MEMBER 2020005979
5/12/2020 1415 HERNDON, KEITH TREVOR B M 51 19.2-99|[F] FUGITIVE FROM JUSTICE 2020005979
5/12/2020 1511 SAMPSON, JOHN JUNIOR B M 47 18.2-137|[M] DESTRUCTION OF PROPERTY, GENERAL
5/12/2020 1520 SAMPSON, JOHN JUNIOR B M 47 18.2-172 FORGING, UTTERING
5/12/2020 1520 SAMPSON, JOHN JUNIOR B M 47 18.2-186.3|[F] IDENTITY FRAUD
5/12/2020 1520 SAMPSON, JOHN JUNIOR B M 47 18.2-178|[F] OBTAINING MONEY BY FALSE PRETENSES
5/12/2020 1612 PULLEY-BARNES, AALIYAH MONE B F 25 18.2-57.2|[M] ASSAULT & BATTERY - FAMILY MEMBER 2020225978
5/12/2020 11:08:00 PM 2308 YOUNG, YUONUS YUONU B M 25 19.2-123 VIOLATE CONDITION OF RELEASE 2020006020
5/13/2020 0001 MARTIN, JAYLON DERRICK B M 19 18.2-265.3|[M] SALE OF DRUG PARAPHERNALIA
5/13/2020 0001 JONES, JIBRIL MALIK B M 18 18.2-308|[M] CARRYING CONCEALED WEAPON -1ST OFFENSE
5/13/2020 0236 WALTON, NOAH MACKLIN JR B M 32 18.2-57.2|[M] ASSAULT & BATTERY - FAMILY MEMBER
5/13/2020 0941 WILLIAMS, DERICO LARON B M 46 18.2-456 CONTEMPT OF COURT
5/13/2020 1220 BRUCE, CHARLES TIMOTHY B M 30 18.2-57.2|[M] ASSAULT & BATTERY - FAMILY MEMBER
5/13/2020 1220 BRUCE, CHARLES TIMOTHY B M 30 18.2-456 CONTEMPT OF COURT
5/13/2020 1325 MOORE, DEVICIA RENEE B F 27 18.2-456 CONTEMPT OF COURT
5/13/2020 1325 MOORE, DEVICIA RENEE B F 27 46.2-938 FAILURE TO APPEAR FOR TRAFFIC SUMMONS
5/13/2020 1530 JOHNSON, DONI VINCENT B M 57 18.2-248|[F] MANUF, SALE, POSSESSION CONTROLLED SUBSTANCE 2020006036
5/13/2020 1530 JOHNSON, DONI VINCENT B M 57 18.2-248.1|[M] SALE, DISTRIBUTE MARIJUANA 2020006036
5/13/2020 1612 FULLER, SAMUEL EARL III B M 37 18.2-456 CONTEMPT OF COURT
5/13/2020 1720 MCADOO, RYAN W M 46 18.2-119 TRESPASSING
5/13/2020 2006 TURNER, DOUGLAS LEAMAN B M 66 19.2-306|[F] REVOCATION OF SUSPENDED SENTENCE AND PROBATION
5/13/2020 2043 CAMPBELL, AALIYAH DENISE JOY JOY B F 25 18.2-51 FELONIOUS ASSAULT 2020002586
5/13/2020 2043 CAMPBELL, AALIYAH DENISE JOY JOY B F 25 18.2-95 GRAND LARCENY 2020002586
5/13/2020 2043 CAMPBELL, AALIYAH DENISE JOY JOY B F 25 18.2-137|[M] DESTRUCTION OF PROPERTY, GENERAL 2020002586
5/13/2020 2050 HOWARD, PARIS NOEL B M 27 18.2-308|[M] CARRYING CONCEALED WEAPON -1ST OFFENSE
5/13/2020 2050 HOWARD, PARIS NOEL B M 27 18.2-282|[M] BRANDISHING FIREARM
5/13/2020 2057 SPENCE, AARON CURTIS B M 38 24-258 PUBLIC DRUNKENNESS
5/13/2020 2330 MILLER, RONNIE ASH B M 62 18.2-57.2|[M] ASSAULT & BATTERY - FAMILY MEMBER 2020006061
5/13/2020 5:20:00 PM 1720 MCADOO, RYAN W M 46 18.2-96|[M] PETIT LARCENY
5/14/2020 1048 ROGERS, MICHAEL COREY JR B M 19 18.2-96|[M] PETIT LARCENY
5/14/2020 1051 PORTER, DARRYL LINWOOD JR B M 33 18.2-192 CREDIT CARD THEFT
5/14/2020 1051 PORTER, DARRYL LINWOOD JR B M 33 18.2-195|[F] CREDIT CARD FRAUD
5/14/2020 1051 PORTER, DARRYL LINWOOD JR B M 33 18.2-186.3|[F] IDENTITY FRAUD
5/14/2020 1840 JONES, RAEKWON JAWAYNE B M 19 18.2-308.2 POSSESS, TRANSPORT FIREARMS BY CONVICTED FELONS 2020006080
5/14/2020 1840 JONES, RAEKWON JAWAYNE B M 19 18.2-46.2 PROHIBITED CRIMINAL STREET GANG PARTICIPATION 2020006080
5/14/2020 2030 BRITTON, KEVIN DARNELL B M 28 18.2-57.2|[M] ASSAULT & BATTERY - FAMILY MEMBER 2020006097
5/15/2020 0228 EURE, MALCOLM BAROCKA B M 47 19.2-128|[F] FAIL TO APPEAR ON FELONY CHARGE
5/15/2020 0316 WILLIAMS, DETWANE ANTONIO B M 35 18.2-456 CONTEMPT OF COURT
5/15/2020 1106 FAULKNER, VICTORIA PAIGE W F 24 18.2-57.2|[M] ASSAULT & BATTERY - FAMILY MEMBER 2020006112
5/15/2020 1618 FRYE, RANDY SHANE W M 33 1-200 COMMON LAW
5/15/2020 6:15:00 PM 1815 MERRITT, DIAMOND ARANAJAH B F 19 19.2-82.1 FALSE IDENTIFY SELF TO LAW ENFORCEMENT
5/16/2020 0816 VAUGHAN-CHERRY, KIMBERLY RENEE B F 48 19.2-306|[F] REVOCATION OF SUSPENDED SENTENCE AND PROBATION
5/16/2020 0816 VAUGHAN-CHERRY, KIMBERLY RENEE B F 48 18.2-456 CONTEMPT OF COURT
5/16/2020 0816 VAUGHAN-CHERRY, KIMBERLY RENEE B F 48 18.2-57.2|[M] ASSAULT & BATTERY - FAMILY MEMBER
5/16/2020 1001 INGE, DANIEL WADE W M 40 18.2-57.2|[M] ASSAULT & BATTERY - FAMILY MEMBER 2020005684
5/16/2020 1700 TORRES, NATASHA W F 33 18.2-57.2|[M] ASSAULT & BATTERY - FAMILY MEMBER 2020006157
5/16/2020 2156 BIBLER-WALLERY, VIRGINIA LYNN W F 49 18.2-250|[F] POSSESSION OF CONTROLLED SUBSTANCES 2020006163
5/16/2020 2156 BIBLER-WALLERY, VIRGINIA LYNN W F 49 18.2-250|[M] POSSESSION OF CONTROLLED SUBSTANCES 2020006163
5/16/2020 2156 BIBLER-WALLERY, VIRGINIA LYNN W F 49 54.1-3466 POSSESS, DISTRIBUTE CONTROLLED PARAPHERNALIA 2020006163
5/16/2020 9:49:00 PM 2149 ROBERTS, MARC ANTHONY B M 47 18.2-456 CONTEMPT OF COURT
5/16/2020 9:49:00 PM 2149 ROBERTS, MARC ANTHONY B M 47 18.2-250|[F] POSSESSION OF CONTROLLED SUBSTANCES 2020006163
5/16/2020 9:49:00 PM 2149 ROBERTS, MARC ANTHONY B M 47 18.2-460[M] OBSTRUCT/RESIST 2020006163
5/17/2020 0235 ASKEW, TIERRA NICOLE B F 27 18.2-456 CONTEMPT OF COURT
5/17/2020 0327 THOMAS, JOSHUA TERRELL B M 27 18.2-282|[M] BRANDISHING FIREARM 2020006176
5/17/2020 0528 STAFFORD, AMANDA DAVIS W F 41 19.2-123 VIOLATE CONDITION OF RELEASE
5/17/2020 2047 HILL, RAYMOND ALEXANDER B M 64 18.2-57.2|[M] ASSAULT & BATTERY - FAMILY MEMBER 2020006193
5/17/2020 2125 SMITH, TEEAH BRIANNE W F 21 18.2-104 LARCENY OR THEFT (3RD OR SUBSQ OFFENSE) 2020006192
5/17/2020 2235 RICKS, STEPHAN DARIUS B M 25 24-258 PUBLIC DRUNKENNESS 2020006197
5/18/2020 0100 MALSON, ARCHIE ROLLAND W M 44 18.2-57.2|[M] ASSAULT & BATTERY - FAMILY MEMBER 2020006200
5/18/2020 0301 SHEPARD, WESLEY DEON B M 32 19.2-306|[F] REVOCATION OF SUSPENDED SENTENCE AND PROBATION
5/18/2020 0437 CHERRY, MICHAEL TYRONE B M 63 18.2-57.2|[M] ASSAULT & BATTERY - FAMILY MEMBER
5/18/2020 0518 RASPBERRY, NORMA YVONNE B F 51 18.2-57.2|[M] ASSAULT & BATTERY - FAMILY MEMBER
5/18/2020 0518 RASPBERRY, NORMA YVONNE B F 51 18.2-137|[M] DESTRUCTION OF PROPERTY, GENERAL
5/18/2020 1535 CAMPBELL, CHELSEA RAE B F 33 19.2-128|[M] FAIL TO APPEAR ON MISDEMEANOR CHARGE
5/18/2020 1630 MOORE, IVAN MOSES B M 39 18.2-103|[F] CONCEALMENT, PRICE ALTER MERCHANDISE >=$200 2020006293
5/18/2020 2030 HANCOCK, JOHN SAMUEL W M 44 24-258 PUBLIC DRUNKENNESS 2020006227
5/19/2020 1208 LOWE, JUSTIN TYLER W M 28 19.2-306|[F] REVOCATION OF SUSPENDED SENTENCE AND PROBATION
5/19/2020 1249 SHAW, TAQUAN FLOYD B M 21 18.2-95 GRAND LARCENY 2020006254
5/19/2020 1249 SHAW, TAQUAN FLOYD B M 21 18.2-248.1|[M] SALE, DISTRIBUTE MARIJUANA 2020006254
5/19/2020 1249 SHAW, TAQUAN FLOYD B M 21 46.2-301 DRIVING W/SUSPENDED OR REVOKED LICENSE 2020006254
5/19/2020 1249 SHAW, TAQUAN FLOYD B M 21 46.2-722 ALTER OR FORGE LICENSE PLATE OR DECAL 2020006254
5/19/2020 1249 SHAW, TAQUAN FLOYD B M 21 18.2-456 CONTEMPT OF COURT
5/19/2020 1810 HARRELL, RAY ANTONIO DE`SHAN B M 31 18.2-32|[F][A] MURDER - FIRST DEGREE 2020005960
5/19/2020 1810 HARRELL, RAY ANTONIO DE`SHAN B M 31 18.2-53.1 USE OR DISPLAY FIREARM IN COMMISSION OF 2020005960
5/19/2020 2153 CLAUSSEN, CYNTHIA JO W F 47 19.2-306|[F] REVOCATION OF SUSPENDED SENTENCE AND PROBATION
5/19/2020 2153 CLAUSSEN, CYNTHIA JO W F 47 18.2-172 FORGING, UTTERING
5/19/2020 2153 CLAUSSEN, CYNTHIA JO W F 47 18.2-178|[F] OBTAINING MONEY BY FALSE PRETENSES
5/19/2020 2153 CLAUSSEN, CYNTHIA JO W F 47 18.2-95 GRAND LARCENY
5/19/2020 2153 CLAUSSEN, CYNTHIA JO W F 47 18.2-186.3|[F] IDENTITY FRAUD
5/19/2020 2153 CLAUSSEN, CYNTHIA JO W F 47 18.2-98|[F] LARCENY OF BANK NOTES, CHECKS
5/19/2020 2335 YOUNG, YUONUS YUONU B M 25 18.2-119 TRESPASSING 2020006275
5/20/2020 0845 PEREZ, MARIE DANIELLE W F 33 18.2-57|[M] ASSAULT & BATTERY 2020006280
5/20/2020 0845 PEREZ, MARIE DANIELLE W F 33 18.2-57|[F] ASSAULT & BATTERY 2020006280
5/20/2020 0845 PEREZ, MARIE DANIELLE W F 33 18.2-51 FELONIOUS ASSAULT 2020006280
5/20/2020 1332 BRICKHOUSE, DEVE`SIA LADELLE SR B M 26 18.2-456 CONTEMPT OF COURT
5/20/2020 1442 STEWART, RA`MYA DESIRAE B M 25 18.2-58 ROBBERY 2020005548
5/20/2020 1500 MARTIN, SHERMAN ERNEST JR B M 53 18.2-91|[F] BREAKING & ENTER W/INT TO COMMIT FELONY 2020006230
5/20/2020 1500 MARTIN, SHERMAN ERNEST JR B M 53 18.2-95 GRAND LARCENY 2020006230
5/20/2020 1500 MARTIN, SHERMAN ERNEST JR B M 53 18.2-108.01 STOLEN PROPERTY: W/ INTENT TO SELL, LARCENY>$200 2020006230
5/20/2020 1500 MARTIN, SHERMAN ERNEST JR B M 53 18.2-178|[M] OBTAINING MONEY BY FALSE PRETENSES 2020006230
5/20/2020 1500 MARTIN, SHERMAN ERNEST JR B M 53 18.2-96|[F] LARCENY OR THEFT (3RD OR SUBSQ OFFENSE) 2020005805
5/20/2020 1500 MARTIN, SHERMAN ERNEST JR B M 53 1-200 COMMON LAW 2020005805
5/20/2020 1520 PALMER, CHARLES LEROY B M 26 18.2-57.2|[M] ASSAULT & BATTERY - FAMILY MEMBER
5/20/2020 2100 WARREN, STEVEN B M 39 18.2-60.3|[M] STALKING
5/20/2020 2100 WARREN, STEVEN B M 39 18.2-57.2|[M] ASSAULT & BATTERY - FAMILY MEMBER
5/21/2020 0012 RIDDICK, SAMUEL JUNIOR JR B M 47 18.2-119 TRESPASSING 2020006316
5/21/2020 0948 MERRICKS, ASHLEY NICOLE B F 32 18.2-456 CONTEMPT OF COURT
5/21/2020 1009 WYATT, BRIAN EUGENE JR B M 29 18.2-456 CONTEMPT OF COURT
5/21/2020 1031 BELFIELD, JA`QUAN LAMAR B M 26 18.2-51 FELONIOUS ASSAULT 2020006158
5/21/2020 1031 BELFIELD, JA`QUAN LAMAR B M 26 18.2-57|[M] ASSAULT & BATTERY 2020006158
5/21/2020 1031 BELFIELD, JA`QUAN LAMAR B M 26 18.2-282|[M] BRANDISHING FIREARM 2020006158
5/22/2020 1745 MARRERO, GEORGE MANWELL B M 25 18.2-371.1 ABUSE AND NEGLECT OF CHILDREN
5/22/2020 1745 MARRERO, GEORGE MANWELL B M 25 18.2-154 SHOOT OR THROW MISSILES AT OCCUPIED VEHICLES
5/22/2020 1745 MARRERO, GEORGE MANWELL B M 25 18.2-137|[M] DESTRUCTION OF PROPERTY, GENERAL
5/22/2020 2050 BURTON, MONTEZ LAMONT B M 31 18.2-456 CONTEMPT OF COURT
5/22/2020 2130 WALLACE, TIRON FORGET B M 24 18.2-57.2|[M] ASSAULT & BATTERY - FAMILY MEMBER
5/23/2020 0053 SCOTT, SAMINA NAKAWLEY B F 28 18.2-111|[M] EMBEZZLEMENT < $500 2020006367
5/23/2020 0053 SCOTT, SAMINA NAKAWLEY B F 28 18.2-111|[F] EMBEZZLEMENT DEEMED LARCENY => $500 2020006367
5/23/2020 0053 SCOTT, SAMINA NAKAWLEY B F 28 18.2-152.3 COMPUTER FRAUD 2020006367
5/23/2020 0053 SCOTT, SAMINA NAKAWLEY B F 28 18.2-152.3|[F] COMPUTER FRAUD >=$200 2020006367
5/23/2020 0221 JORDAN, SHAKEIRA GENESIA B F 23 18.2-111|[F] EMBEZZLEMENT DEEMED LARCENY => $500 2020006367
5/23/2020 0221 JORDAN, SHAKEIRA GENESIA B F 23 18.2-178|[M] OBTAINING MONEY BY FALSE PRETENSES 2020006367
5/23/2020 0221 JORDAN, SHAKEIRA GENESIA B F 23 18.2-178|[F] OBTAINING MONEY BY FALSE PRETENSES 2020006367
5/23/2020 0221 JORDAN, SHAKEIRA GENESIA B F 23 18.2-111|[M] EMBEZZLEMENT < $500 2020006367
5/23/2020 0307 CHARLES, MAKALYN B B F 20 18.2-111|[F] EMBEZZLEMENT DEEMED LARCENY => $500 2020006367
5/23/2020 0307 CHARLES, MAKALYN B B F 20 18.2-178|[F] OBTAINING MONEY BY FALSE PRETENSES 2020006367
5/23/2020 0338 SUMNER, KIM EDWARD B M 54 18.2-308.2 POSSESS, TRANSPORT FIREARMS BY CONVICTED 2020005325
5/23/2020 0338 SUMNER, KIM EDWARD B M 54 18.2-56.1 RECKLESS HANDLING OF FIREARM 2020005325
5/23/2020 0338 SUMNER, KIM EDWARD B M 54 18.2-57.2|[M] ASSAULT & BATTERY - FAMILY MEMBER 2020005325
5/23/2020 0824 MCDONALD, JAMELL EUGENE B M 28 18.2-119 TRESPASSING
5/23/2020 0824 MCDONALD, JAMELL EUGENE B M 28 18.2-57|[M] ASSAULT & BATTERY
5/23/2020 0824 MCDONALD, JAMELL EUGENE B M 28 18.2-96|[M] PETIT LARCENY
5/23/2020 1519 MORGAN, KENNETH CARLTON B M 29 18.2-57.2|[M] ASSAULT & BATTERY - FAMILY MEMBER
5/23/2020 1519 MORGAN, KENNETH CARLTON B M 29 18.2-51.6[F] STRANGULATION OF ANOTHER
5/23/2020 1701 LAROCK, SIDNEY LYNN W F 62 18.2-456 CONTEMPT OF COURT 1900441301
5/23/2020 2142 RASNAKE, KEVIN LANE W M 49 24-258 PUBLIC DRUNKENNESS 2020006419
5/23/2020 2254 SCOTT, CRYSTAL YVONNE B F 50 18.2-58 ROBBERY 2020006418
5/24/2020 0320 JONES, TYREE GERARD B M 34 24-258 PUBLIC DRUNKENNESS 2020006427
5/24/2020 1114 MARSH, DARYL B M 53 19.2-306|[F] REVOCATION OF SUSPENDED SENTENCE AND PROBATION
5/24/2020 1215 PERALTA, MICHAEL ANGELO W M 40 18.2-53.1 USE OR DISPLAY FIREARM IN COMMISSION OF FELONY
5/24/2020 1215 PERALTA, MICHAEL ANGELO W M 40 18.2-51.2 AGGRAVATED MALICIOUS WOUNDING
5/24/2020 1918 JACKSON, SYLVESTER BRANDHAM III B M 42 18.2-57.2|[M] ASSAULT & BATTERY - FAMILY MEMBER
5/24/2020 1918 JACKSON, SYLVESTER BRANDHAM III B M 42 18.2-60.3|[M] STALKING
5/24/2020 1918 JACKSON, SYLVESTER BRANDHAM III B M 42 18.2-67.4 SEXUAL BATTERY
5/25/2020 0037 COBB, TREVOR MONTANA W M 24 18.2-57.2|[M] ASSAULT & BATTERY - FAMILY MEMBER 2020006447
5/25/2020 0326 DAVID, MARIAH ALEXIS W F 24 18.2-266 DRIVING UNDER THE INFLUENCE OF ALCOHOL 2020006453
5/25/2020 0612 REID FENNER, MIESHA TIERRA REAMONE B F 27 18.2-32|[F][A] MURDER - FIRST DEGREE 2020007531
5/25/2020 0612 REID FENNER, MIESHA TIERRA REAMONE B F 27 18.2-77 BURNING OR DESTROYING DWELLING 2020007531
5/25/2020 0612 REID FENNER, MIESHA TIERRA REAMONE B F 27 18.2-137|[F] DESTRUCTION OF PROPERTY GENERAL -VALUE >=$1000 2020007531
5/25/2020 0632 MILLER, INDIA CARISSA B F 34 19.2-123 VIOLATE CONDITION OF RELEASE
5/25/2020 1302 MORGAN, VINOL GLENN B M 51 18.2-248|[F] MANUF, SALE, POSSESSION CONTROLLED SUBSTANCE 2020006465
5/25/2020 1500 PARKER, DESHAWN B M 24 18.2-308.2 POSSESS, TRANSPORT FIREARMS BY CONVICTED FELONS
5/25/2020 1500 PARKER, DESHAWN B M 24 18.2-282|[M] BRANDISHING FIREARM
5/25/2020 1500 PARKER, DESHAWN B M 24 18.2-57|[M] ASSAULT & BATTERY
5/25/2020 1551 COLLINS, KEANNA KERI B F 24 18.2-111|[F] EMBEZZLEMENT DEEMED LARCENY => $500 2019006555
5/25/2020 1551 COLLINS, KEANNA KERI B F 24 18.2-51 FELONIOUS ASSAULT 2020006467
5/25/2020 1740 MCLAURIN, LANAE MARIE B F 24 46.2-894|[F] HIT AND RUN - PERSONAL INJURY 2020006472
5/25/2020 2050 RIDDICK, SAMUEL JUNIOR JR B M 47 18.2-57|[M] ASSAULT & BATTERY
5/25/2020 2050 RIDDICK, SAMUEL JUNIOR JR B M 47 18.2-96|[M] PETIT LARCENY
5/25/2020 2146 BOONE, TIMOTHY ANTONIO B M 60 18.2-96|[F] LARCENY OR THEFT (3RD OR SUBSQ OFFENSE) 2020006483
5/25/2020 2338 BUTLER, THERESA ANN W F 33 18.2-96|[M] PETIT LARCENY 2020006486
5/26/2020 0143 HILL, QUENTIN LEVON B M 24 18.2-57.2|[F] ASSAULT & BATTERY - FAMILY MEMBER (3RD OFFENSE) 2020006499
5/26/2020 0143 HILL, QUENTIN LEVON B M 24 18.2-137|[F] DESTRUCTION OF PROPERTY GENERAL -VALUE >=$1000 2020006499
5/26/2020 0143 BULLEN, NATAYA B F 22 18.2-57.2|[F] ASSAULT & BATTERY - FAMILY MEMBER (3RD OFFENSE) 2020006499
5/26/2020 1336 NEWMAN, DARIUS ALEXANDER B M 22 18.2-461 FALSELY SUMMONS OR FALSE REPORT TO POLICE
5/26/2020 1337 YOUNG, YUONUS YUONU B M 25 18.2-57|[M] ASSAULT & BATTERY 2020006509
5/26/2020 1337 YOUNG, YUONUS YUONU B M 25 18.2-51 FELONIOUS ASSAULT 2020006509
5/26/2020 1705 SAUNDERS, SHAKIAH JANAE B F 23 18.2-27 ATTEMPT TO COMMIT MISDEMEANOR
5/26/2020 1705 SAUNDERS, SHAKIAH JANAE B F 23 18.2-186.3 IDENTITY THEFT: USE TO AVOID ARREST
5/26/2020 2244 JOHNSON, BREON MARQUISE B M 22 18.2-51 FELONIOUS ASSAULT 2020002480
5/26/2020 2244 JOHNSON, BREON MARQUISE B M 22 18.2-286.1 SHOOTING FROM VEHICLES 2020002480
5/27/2020 0158 JORDAN, MIRONDA EVETTE B F 44 18.2-266|[M] DRIVING UNDER THE INFLUENCE OF ALCOHOL 2020006537
5/27/2020 0520 WOODARD, JAZZMENNE CHALEA B F 23 18.2-57.2|[M] ASSAULT & BATTERY - FAMILY MEMBER 2020006540
5/27/2020 1400 CAMERON, ZAFIRHA DANIELLE B F 26 18.2-57.2|[M] ASSAULT & BATTERY - FAMILY MEMBER 2020006553
5/27/2020 2127 BRIGHT, HANNAH LEIGH W F 19 18.2-57.2|[M] ASSAULT & BATTERY - FAMILY MEMBER
5/27/2020 2318 CLAUD, KWANNA TEESHAN B F 29 8.01-508 FAIL TO APPEAR ON CIVIL MATTER
5/28/2020 0049 SHERROD, DEON FREDERICK B M 25 18.2-456 CONTEMPT OF COURT
5/28/2020 0417 SESSOMS, JADA LATASHA MICHELL B F 20 18.2-60|[F] THREATS OF DEATH OR BODILY INJURY BY LETTER 2020002289
5/28/2020 0417 SESSOMS, JADA LATASHA MICHELL B F 20 18.2-57.2|[M] ASSAULT & BATTERY - FAMILY MEMBER 2020001599
5/28/2020 0857 WILSON, DIANE B F 70 18.2-119 TRESPASSING
5/28/2020 0935 WAYNE, BRIAN SANDY W M 51 18.2-57|[M] ASSAULT & BATTERY
5/28/2020 1044 TYLER, ARIYAH ROBYN B F 33 18.2-57|[M] ASSAULT & BATTERY
5/28/2020 1403 CARRINGTON, GE`ANDRE LAMONT B M 18 18.2-95 GRAND LARCENY 2020004388
5/28/2020 1403 CARRINGTON, GE`ANDRE LAMONT B M 18 18.2-96|[M] PETIT LARCENY 2020004388
5/28/2020 1403 CARRINGTON, GE`ANDRE LAMONT B M 18 18.2-147 ENTERING OR SETTING IN MOTION A VEHICLE 2020004388
5/28/2020 1403 CARRINGTON, GE`ANDRE LAMONT B M 18 18.2-108.01 STOLEN PROPERTY: W/ INTENT TO SELL, LARCENY>$200 2020004388
5/28/2020 1808 BRAND, PAUL BRIAN W M 45 18.2-250|[F] POSSESSION OF CONTROLLED SUBSTANCES 2019014240
5/28/2020 1808 BRAND, PAUL BRIAN W M 45 54.1-3466 POSSESS, DISTRIBUTE CONTROLLED PARAPHERN 2019014240
5/28/2020 2105 MOZELLE, CRAIG DESHAWN B M 28 18.2-96|[M] PETIT LARCENY 2020001317
5/28/2020 2106 MCGUIRE, KATRINA JACKSON B F 48 18.2-456 CONTEMPT OF COURT
5/28/2020 2133 BROWN, DEMARCUS D B M 31 18.2-57.2|[M] ASSAULT & BATTERY - FAMILY MEMBER 2020006627
5/29/2020 0056 BLOUNT, VANESSA SHANTA B F 19 46.2-105.2|[F] UNLAWFULLY OBTAIN DOCUMENTS FROM DMV
5/29/2020 0056 BLOUNT, VANESSA SHANTA B F 19 18.2-178|[F] OBTAINING MONEY BY FALSE PRETENSES
5/29/2020 0056 BLOUNT, VANESSA SHANTA B F 19 46.2-605 ALTER OR FORGE VEHICLE REGISTRATION OR TITLE
5/29/2020 0502 SIMMONS, AMY VERONICA B F 37 18.2-57.2|[M] ASSAULT & BATTERY - FAMILY MEMBER 2020006636
5/29/2020 0530 SIMMONS, ALLEN B M 38 18.2-57.2|[M] ASSAULT & BATTERY - FAMILY MEMBER 2020006636
5/29/2020 1327 THOMAS, DEMETRICE MARKIQUE B M 36 19.2-152.4:1[F] REVOCATION OF PRETRIAL RELEASE
5/29/2020 1811 GRAY, CLARENCE EDWARD III B M 63 18.2-81|[F] BURNING OR DESTROYING PERSONAL PROPERTY
5/29/2020 1811 GRAY, CLARENCE EDWARD III B M 63 18.2-456 CONTEMPT OF COURT
5/29/2020 1910 MILES, DAVE IRVIN B M 60 18.2-57.2|[M] ASSAULT & BATTERY - FAMILY MEMBER
5/29/2020 2000 JONES, ERIC PERCELL JR B M 28 PB-15 PAROLE BOARD WARRANT - PB15
5/29/2020 2159 BOTTOMS, TIFFANY LASHANTE B F 23 18.2-111|[F] EMBEZZLEMENT DEEMED LARCENY => $500
5/29/2020 2159 BOTTOMS, TIFFANY LASHANTE B F 23 18.2-178|[F] OBTAINING MONEY BY FALSE PRETENSES
5/29/2020 2159 BOTTOMS, TIFFANY LASHANTE B F 23 18.2-152.3 COMPUTER FRAUD
5/30/2020 0051 RIDDICK, ANTONIO MONTE B M 33 19.2-306|[F] REVOCATION OF SUSPENDED SENTENCE AND PROBATION
5/30/2020 0322 JOHNSON, CARNEL TAWONE B M 41 18.2-51 FELONIOUS ASSAULT
5/30/2020 0322 JOHNSON, CARNEL TAWONE B M 41 18.2-51.6[F] STRANGULATION OF ANOTHER
5/30/2020 0322 JOHNSON, CARNEL TAWONE B M 41 18.2-57.2|[F] ASSAULT & BATTERY - FAMILY MEMBER (3RD OFFENSE)
5/30/2020 0355 ALEANDRO, COREY DAVID W M 44 18.2-57.2|[M] ASSAULT & BATTERY - FAMILY MEMBER
5/30/2020 0421 PETRIN, NATHAN MICHAEL W M 26 24-258 PUBLIC DRUNKENNESS
5/30/2020 0629 SAULTERS, ALISSA NICHOLE B F 34 18.2-415 DISORDERLY CONDUCT
5/30/2020 0629 SAULTERS, ALISSA NICHOLE B F 34 18.2-57|[F] ASSAULT & BATTERY
5/30/2020 2052 JENKINS, HOPE DENEANE B F 51 24-258 PUBLIC DRUNKENNESS
5/30/2020 2255 PIERCE, RAYMOND ISAIAH W M 25 18.2-415 DISORDERLY CONDUCT
5/30/2020 2255 PIERCE, RAYMOND ISAIAH W M 25 18.2-57|[M] ASSAULT & BATTERY
5/31/2020 0059 JEFFERS, CAMERON THOMAS W M 19 18.2-137|[M] DESTRUCTION OF PROPERTY, GENERAL
5/31/2020 0059 JEFFERS, CAMERON THOMAS W M 19 18.2-57|[M] ASSAULT & BATTERY
5/31/2020 0133 RUDOLPH, DANIEL JAMES B M 36 18.2-57.2|[M] ASSAULT & BATTERY - FAMILY MEMBER
5/31/2020 0435 BOONE, TIMOTHY ANTONIO B M 60 18.2-91|[F] BREAKING & ENTER W/INT TO COMMIT FELONY
5/31/2020 0509 MITCHELL, DONNELL DAQWAUN B M 22 18.2-95 GRAND LARCENY
5/31/2020 0509 MITCHELL, DONNELL DAQWAUN B M 22 46.2-301 DRIVING W/SUSPENDED OR REVOKED LICENSE
5/31/2020 0535 KEARNEY, VINCENT ANTONIO B M 36 18.2-95 GRAND LARCENY 2020006697
5/31/2020 0612 MATTHEWS, YUSEF LATEF JR B M 18 18.2-95 GRAND LARCENY 2020006697
6/1/2020 0123 CANNON, QWASON MONTE B M 18 18.2-58 ROBBERY 2020004040
6/1/2020 0510 THOMPSON, THOMAS WAYNE JR W M 50 18.2-57.2|[M] ASSAULT & BATTERY - FAMILY MEMBER
6/1/2020 1609 HINNANT, ALSTON KELSEY B M 21 18.2-51.6[F] STRANGULATION OF ANOTHER 2020006326
6/1/2020 1609 HINNANT, ALSTON KELSEY B M 21 18.2-57|[M] ASSAULT & BATTERY 2020006326
6/1/2020 1609 HINNANT, ALSTON KELSEY B M 21 18.2-371 CONTRIBUTING TO THE DELINQUENCY OF A MINOR 2020006326
6/1/2020 1609 HINNANT, ALSTON KELSEY B M 21 18.2-456 CONTEMPT OF COURT
6/2/2020 1628 NOACK, AMBER NICOLE W F 34 18.2-57.2|[F] ASSAULT & BATTERY - FAMILY MEMBER (3RD OFFENSE)
6/3/2020 0155 RIDDICK, COREY JAMELL B M 39 18.2-456 CONTEMPT OF COURT
6/3/2020 0440 BROWN, DAVONTE LAMONTE B M 28 18.2-91|[F] BREAKING & ENTER W/INT TO COMMIT FELONY 2020001171
6/3/2020 1600 KNOWLTON, MARKEITH DARNELL B M 37 18.2-91|[F] BREAKING & ENTER W/INT TO COMMIT FELONY 2019012963
6/3/2020 1600 KNOWLTON, MARKEITH DARNELL B M 37 18.2-60.4 [M] VIOLATION OF STALKING PROTECTIVE ORDER
6/3/2020 1600 KNOWLTON, MARKEITH DARNELL B M 37 18.2-415 DISORDERLY CONDUCT 2019-012431
6/3/2020 1600 KNOWLTON, MARKEITH DARNELL B M 37 18.2-427 PROFANE, THREATENING LANGUAGE OVER PUBLIC AIRWAY 2019-012439
6/3/2020 1600 KNOWLTON, MARKEITH DARNELL B M 37 18.2-137|[M] DESTRUCTION OF PROPERTY, GENERAL 2019-012439
6/3/2020 2015 WEST, AMBER MACRAE W F 37 18.2-456 CONTEMPT OF COURT
6/4/2020 0138 BEAMON, RUSSELL WOODROW W M 40 18.2-57.2|[M] ASSAULT & BATTERY - FAMILY MEMBER
6/4/2020 1249 GARCIA HENRNANDEZ, JOSE ARCADIO W M 31 18.2-67.3 AGGRAVATED SEXUAL BATTERY 2018014135
6/4/2020 1354 NEWSOME, MICAH ANTHONY B M 20 18.2-282|[M] BRANDISHING FIREARM 2020005825
6/4/2020 1354 NEWSOME, MICAH ANTHONY B M 20 18.2-57.2|[M] ASSAULT & BATTERY - FAMILY MEMBER 2020005825
6/5/2020 0610 MANLEY, JOSEPH WINBORNE B M 59 18.2-51 FELONIOUS ASSAULT 2020006892
6/5/2020 0610 MANLEY, JOSEPH WINBORNE B M 59 18.2-57.2|[M] ASSAULT & BATTERY - FAMILY MEMBER 2020006892
6/6/2020 0013 SMITH, DIREAL ANTWINE B M 31 18.2-57.2|[M] ASSAULT & BATTERY - FAMILY MEMBER
6/6/2020 0430 ALBERS, ASHLEY MARIE W F 32 19.2-306|[F] REVOCATION OF SUSPENDED SENTENCE AND PROBATION